Time,TemperatureF,DewpointF,PressureIn,WindDirection,WindDirectionDegrees,WindSpeedMPH,WindSpeedGustMPH,Humidity,HourlyPrecipIn,Conditions,Clouds,dailyrainin,SoftwareType,DateUTC
2013-05-21 00:00:00,67.9,67.9,30.03,NE,48,0.0,0.0,100,0.00,,,0.00,Wunderground v.1.15,2013-05-21 04:00:00,
2013-05-21 00:05:00,67.8,67.8,30.02,NE,49,0.0,0.0,100,0.00,,,0.00,Wunderground v.1.15,2013-05-21 04:05:00,
2013-05-21 00:10:00,67.7,67.7,30.02,NE,49,0.0,0.0,100,0.00,,,0.00,Wunderground v.1.15,2013-05-21 04:10:00,
2013-05-21 00:15:00,67.6,67.6,30.02,NE,49,0.0,0.0,100,0.00,,,0.00,Wunderground v.1.15,2013-05-21 04:15:00,
2013-05-21 00:20:00,67.5,67.5,30.02,NE,49,0.0,0.0,100,0.00,,,0.00,Wunderground v.1.15,2013-05-21 04:20:00,
2013-05-21 00:25:00,67.4,67.4,30.02,NE,49,0.0,0.0,100,0.00,,,0.00,Wunderground v.1.15,2013-05-21 04:25:00,
2013-05-21 00:30:00,67.3,67.3,30.02,NE,49,0.0,0.0,100,0.00,,,0.00,Wunderground v.1.15,2013-05-21 04:30:00,
2013-05-21 00:35:00,67.2,67.2,30.02,NE,49,0.0,0.0,100,0.00,,,0.00,Wunderground v.1.15,2013-05-21 04:35:00,
2013-05-21 00:40:00,67.1,67.1,30.02,NE,49,0.0,0.0,100,0.00,,,0.00,Wunderground v.1.15,2013-05-21 04:40:00,
2013-05-21 00:50:00,67.0,67.0,30.02,NE,49,0.0,0.0,100,0.00,,,0.00,Wunderground v.1.15,2013-05-21 04:50:00,
2013-05-21 00:55:00,67.0,67.0,30.02,NE,49,0.0,0.0,100,0.00,,,0.00,Wunderground v.1.15,2013-05-21 04:55:00,
2013-05-21 01:00:00,66.9,66.9,30.02,NE,49,0.0,0.0,100,0.00,,,0.00,Wunderground v.1.15,2013-05-21 05:00:00,
2013-05-21 01:10:00,66.8,66.8,30.02,NE,49,0.0,0.0,100,0.00,,,0.00,Wunderground v.1.15,2013-05-21 05:10:00,
2013-05-21 01:20:00,66.6,66.6,30.01,NE,49,0.0,0.0,100,0.00,,,0.00,Wunderground v.1.15,2013-05-21 05:20:00,
2013-05-21 01:30:00,66.4,66.4,30.01,NE,49,0.0,0.0,100,0.00,,,0.00,Wunderground v.1.15,2013-05-21 05:30:00,
2013-05-21 01:35:00,66.3,66.3,30.01,NE,49,0.0,0.0,100,0.00,,,0.00,Wunderground v.1.15,2013-05-21 05:35:00,
2013-05-21 01:40:00,66.2,66.2,30.01,NE,49,0.0,0.0,100,0.00,,,0.00,Wunderground v.1.15,2013-05-21 05:40:00,
2013-05-21 01:50:00,66.1,66.1,30.01,NE,49,0.0,0.0,100,0.00,,,0.00,Wunderground v.1.15,2013-05-21 05:50:00,
2013-05-21 02:00:00,65.9,65.9,30.01,NE,49,0.0,0.0,100,0.00,,,0.00,Wunderground v.1.15,2013-05-21 06:00:00,
2013-05-21 02:05:00,65.8,65.8,30.01,NE,49,0.0,0.0,100,0.00,,,0.00,Wunderground v.1.15,2013-05-21 06:05:00,
2013-05-21 02:15:00,65.7,65.7,30.01,NE,49,0.0,0.0,100,0.00,,,0.00,Wunderground v.1.15,2013-05-21 06:15:00,
2013-05-21 02:20:00,65.7,65.7,30.01,NE,49,0.0,0.0,100,0.00,,,0.00,Wunderground v.1.15,2013-05-21 06:20:00,
2013-05-21 02:30:00,65.6,65.6,30.01,NE,49,0.0,0.0,100,0.00,,,0.00,Wunderground v.1.15,2013-05-21 06:30:00,
2013-05-21 02:35:00,65.6,65.6,30.00,NE,49,0.0,0.0,100,0.00,,,0.00,Wunderground v.1.15,2013-05-21 06:35:00,
2013-05-21 02:40:00,65.6,65.6,30.00,NE,49,0.0,0.0,100,0.00,,,0.00,Wunderground v.1.15,2013-05-21 06:40:00,
2013-05-21 02:50:00,65.6,65.6,30.00,NE,49,0.0,0.0,100,0.00,,,0.00,Wunderground v.1.15,2013-05-21 06:50:00,
2013-05-21 03:00:00,65.6,65.6,30.00,NE,49,0.0,0.0,100,0.00,,,0.00,Wunderground v.1.15,2013-05-21 07:00:00,
2013-05-21 03:10:00,65.4,65.4,30.00,NE,49,0.0,0.0,100,0.00,,,0.00,Wunderground v.1.15,2013-05-21 07:10:00,
2013-05-21 03:15:00,65.4,65.4,30.00,NE,49,0.0,0.0,100,0.00,,,0.00,Wunderground v.1.15,2013-05-21 07:15:00,
2013-05-21 03:20:00,65.4,65.4,30.00,NE,49,0.0,0.0,100,0.00,,,0.00,Wunderground v.1.15,2013-05-21 07:20:00,
2013-05-21 03:30:00,65.2,65.2,30.00,NE,49,0.0,0.0,100,0.00,,,0.00,Wunderground v.1.15,2013-05-21 07:30:00,
2013-05-21 03:40:00,65.0,65.0,29.99,NE,49,0.0,0.0,100,0.00,,,0.00,Wunderground v.1.15,2013-05-21 07:40:00,
2013-05-21 03:45:00,64.9,64.9,29.99,NE,49,0.0,0.0,100,0.00,,,0.00,Wunderground v.1.15,2013-05-21 07:45:00,
2013-05-21 03:50:00,64.9,64.9,29.99,NE,49,0.0,0.0,100,0.00,,,0.00,Wunderground v.1.15,2013-05-21 07:50:00,
2013-05-21 04:00:00,64.7,64.7,29.99,NE,49,0.0,0.0,100,0.00,,,0.00,Wunderground v.1.15,2013-05-21 08:00:00,
2013-05-21 04:10:00,64.5,64.5,29.99,NE,49,0.0,0.0,100,0.00,,,0.00,Wunderground v.1.15,2013-05-21 08:10:00,
2013-05-21 04:15:00,64.4,64.4,29.98,NE,49,0.0,0.0,100,0.00,,,0.00,Wunderground v.1.15,2013-05-21 08:15:00,
2013-05-21 04:20:00,64.3,64.3,29.98,NE,49,0.0,0.0,100,0.00,,,0.00,Wunderground v.1.15,2013-05-21 08:20:00,
2013-05-21 04:30:00,64.2,64.2,29.98,NE,49,0.0,0.0,100,0.00,,,0.00,Wunderground v.1.15,2013-05-21 08:30:00,
2013-05-21 04:40:00,64.1,64.1,29.98,NE,49,0.0,0.0,100,0.00,,,0.00,Wunderground v.1.15,2013-05-21 08:40:00,
2013-05-21 04:50:00,63.9,63.9,29.98,NE,49,0.0,0.0,100,0.00,,,0.00,Wunderground v.1.15,2013-05-21 08:50:00,
2013-05-21 04:55:00,63.9,63.9,29.98,NE,49,0.0,0.0,100,0.00,,,0.00,Wunderground v.1.15,2013-05-21 08:55:00,
2013-05-21 05:00:00,63.8,63.8,29.98,NE,49,0.0,0.0,100,0.00,,,0.00,Wunderground v.1.15,2013-05-21 09:00:00,
2013-05-21 05:10:00,63.7,63.7,29.98,NE,49,0.0,0.0,100,0.00,,,0.00,Wunderground v.1.15,2013-05-21 09:10:00,
2013-05-21 05:20:00,63.5,63.5,29.99,NE,49,0.0,0.0,100,0.00,,,0.00,Wunderground v.1.15,2013-05-21 09:20:00,
2013-05-21 05:30:00,63.4,63.4,29.99,NE,49,0.0,0.0,100,0.00,,,0.00,Wunderground v.1.15,2013-05-21 09:30:00,
2013-05-21 05:40:00,63.4,63.4,29.99,NE,49,0.0,0.0,100,0.00,,,0.00,Wunderground v.1.15,2013-05-21 09:40:00,
2013-05-21 05:50:00,63.3,63.3,30.00,NE,49,0.0,0.0,100,0.00,,,0.01,Wunderground v.1.15,2013-05-21 09:50:00,
2013-05-21 06:00:00,63.2,63.2,30.00,NE,49,0.0,0.0,100,0.00,,,0.01,Wunderground v.1.15,2013-05-21 10:00:00,
2013-05-21 06:05:00,63.1,63.1,30.00,NE,49,0.0,0.0,100,0.00,,,0.01,Wunderground v.1.15,2013-05-21 10:05:00,
2013-05-21 06:15:00,63.0,63.0,30.00,NE,49,0.0,0.0,100,0.00,,,0.01,Wunderground v.1.15,2013-05-21 10:15:00,
2013-05-21 06:20:00,62.9,62.9,30.00,NE,49,0.0,0.0,100,0.00,,,0.01,Wunderground v.1.15,2013-05-21 10:20:00,
2013-05-21 06:30:00,62.8,62.8,30.00,NE,49,0.0,0.0,100,0.00,,,0.01,Wunderground v.1.15,2013-05-21 10:30:00,
2013-05-21 06:40:00,62.6,62.6,30.00,NE,49,0.0,0.0,100,0.00,,,0.01,Wunderground v.1.15,2013-05-21 10:40:00,
2013-05-21 06:45:00,62.5,62.5,30.01,NE,49,0.0,0.0,100,0.00,,,0.01,Wunderground v.1.15,2013-05-21 10:45:00,
2013-05-21 06:55:00,62.5,62.5,30.01,NE,49,0.0,0.0,100,0.00,,,0.01,Wunderground v.1.15,2013-05-21 10:55:00,
2013-05-21 07:00:00,62.5,62.5,30.02,NE,49,0.0,0.0,100,0.00,,,0.01,Wunderground v.1.15,2013-05-21 11:00:00,
2013-05-21 07:10:00,62.7,62.7,30.02,NE,49,0.0,0.0,100,0.00,,,0.01,Wunderground v.1.15,2013-05-21 11:10:00,
2013-05-21 07:20:00,62.9,62.9,30.02,South,190,0.0,0.0,100,0.00,,,0.01,Wunderground v.1.15,2013-05-21 11:20:00,
2013-05-21 07:25:00,62.9,62.9,30.02,South,190,0.0,0.0,100,0.00,,,0.01,Wunderground v.1.15,2013-05-21 11:25:00,
2013-05-21 07:35:00,63.1,63.1,30.03,South,190,0.0,0.0,100,0.00,,,0.01,Wunderground v.1.15,2013-05-21 11:35:00,
2013-05-21 07:40:00,63.1,63.1,30.03,South,190,0.0,0.0,100,0.00,,,0.01,Wunderground v.1.15,2013-05-21 11:40:00,
2013-05-21 07:50:00,63.3,63.3,30.03,South,190,0.0,0.0,100,0.00,,,0.01,Wunderground v.1.15,2013-05-21 11:50:00,
2013-05-21 07:55:00,63.5,63.5,30.03,South,190,0.0,0.0,100,0.00,,,0.01,Wunderground v.1.15,2013-05-21 11:55:00,
2013-05-21 08:05:00,64.1,64.1,30.03,South,190,0.0,0.0,100,0.00,,,0.01,Wunderground v.1.15,2013-05-21 12:05:00,
2013-05-21 08:15:00,65.0,65.0,30.03,South,190,0.0,0.0,100,0.00,,,0.01,Wunderground v.1.15,2013-05-21 12:15:00,
2013-05-21 08:20:00,65.4,65.4,30.04,South,190,0.0,0.0,100,0.00,,,0.01,Wunderground v.1.15,2013-05-21 12:20:00,
2013-05-21 08:30:00,66.0,66.0,30.04,South,190,0.0,0.0,100,0.00,,,0.01,Wunderground v.1.15,2013-05-21 12:30:00,
2013-05-21 08:35:00,66.1,66.1,30.04,South,190,0.0,0.0,100,0.00,,,0.01,Wunderground v.1.15,2013-05-21 12:35:00,
2013-05-21 08:40:00,66.3,66.3,30.04,South,190,0.0,0.0,100,0.00,,,0.01,Wunderground v.1.15,2013-05-21 12:40:00,
2013-05-21 08:50:00,66.8,66.8,30.03,South,190,0.0,0.0,100,0.00,,,0.01,Wunderground v.1.15,2013-05-21 12:50:00,
2013-05-21 09:00:00,67.4,67.4,30.03,South,190,0.0,0.0,100,0.00,,,0.01,Wunderground v.1.15,2013-05-21 13:00:00,
2013-05-21 09:10:00,68.0,68.0,30.04,South,190,0.0,0.0,100,0.00,,,0.01,Wunderground v.1.15,2013-05-21 13:10:00,
2013-05-21 09:15:00,68.5,68.5,30.04,South,190,0.0,0.0,100,0.00,,,0.01,Wunderground v.1.15,2013-05-21 13:15:00,
2013-05-21 09:20:00,68.9,68.9,30.04,South,190,0.0,0.0,100,0.00,,,0.01,Wunderground v.1.15,2013-05-21 13:20:00,
2013-05-21 09:30:00,69.6,69.6,30.05,South,190,0.0,0.0,100,0.00,,,0.01,Wunderground v.1.15,2013-05-21 13:30:00,
2013-05-21 09:40:00,70.1,70.1,30.05,South,190,0.0,0.0,100,0.00,,,0.01,Wunderground v.1.15,2013-05-21 13:40:00,
2013-05-21 09:50:00,70.3,70.3,30.05,South,190,0.0,0.0,100,0.00,,,0.01,Wunderground v.1.15,2013-05-21 13:50:00,
2013-05-21 09:55:00,70.4,70.4,30.05,South,190,0.0,0.0,100,0.00,,,0.01,Wunderground v.1.15,2013-05-21 13:55:00,
2013-05-21 10:00:00,70.4,70.4,30.04,South,190,0.0,0.0,100,0.00,,,0.01,Wunderground v.1.15,2013-05-21 14:00:00,
2013-05-21 10:10:00,70.7,70.7,30.04,South,190,0.0,0.0,100,0.00,,,0.01,Wunderground v.1.15,2013-05-21 14:10:00,
2013-05-21 10:20:00,70.9,70.9,30.04,South,190,0.0,0.0,100,0.00,,,0.01,Wunderground v.1.15,2013-05-21 14:20:00,
2013-05-21 10:25:00,71.2,71.2,30.04,South,190,0.0,0.0,100,0.00,,,0.01,Wunderground v.1.15,2013-05-21 14:25:00,
2013-05-21 10:35:00,71.7,71.7,30.03,South,190,0.0,0.0,100,0.00,,,0.01,Wunderground v.1.15,2013-05-21 14:35:00,
2013-05-21 10:40:00,71.9,71.9,30.03,South,190,0.0,0.0,100,0.00,,,0.01,Wunderground v.1.15,2013-05-21 14:40:00,
2013-05-21 10:50:00,72.4,72.4,30.03,South,190,0.0,0.0,100,0.00,,,0.01,Wunderground v.1.15,2013-05-21 14:50:00,
2013-05-21 11:00:00,73.3,73.3,30.03,South,190,0.0,0.0,100,0.00,,,0.01,Wunderground v.1.15,2013-05-21 15:00:00,
2013-05-21 11:05:00,73.7,73.4,30.03,South,191,0.0,0.0,99,0.00,,,0.01,Wunderground v.1.15,2013-05-21 15:05:00,
2013-05-21 11:10:00,74.1,73.8,30.03,South,191,0.0,0.0,99,0.00,,,0.01,Wunderground v.1.15,2013-05-21 15:10:00,
2013-05-21 11:20:00,74.9,74.6,30.03,South,191,0.0,0.0,99,0.00,,,0.01,Wunderground v.1.15,2013-05-21 15:20:00,
2013-05-21 11:30:00,75.3,74.1,30.03,South,191,0.0,0.0,96,0.00,,,0.01,Wunderground v.1.15,2013-05-21 15:30:00,
2013-05-21 11:35:00,75.5,74.3,30.03,South,191,0.0,0.0,96,0.00,,,0.01,Wunderground v.1.15,2013-05-21 15:35:00,
2013-05-21 11:40:00,75.9,75.0,30.03,South,191,0.0,0.0,97,0.00,,,0.01,Wunderground v.1.15,2013-05-21 15:40:00,
2013-05-21 11:50:00,76.5,75.0,30.02,NNE,19,0.0,0.0,95,0.00,,,0.01,Wunderground v.1.15,2013-05-21 15:50:00,
2013-05-21 12:00:00,76.8,74.3,30.02,NNE,18,0.0,0.0,92,0.00,,,0.01,Wunderground v.1.15,2013-05-21 16:00:00,
2013-05-21 12:10:00,77.2,74.0,30.02,NNE,22,0.0,0.0,90,0.00,,,0.01,Wunderground v.1.15,2013-05-21 16:10:00,
2013-05-21 12:15:00,77.5,74.0,30.02,NNE,23,0.0,0.0,89,0.00,,,0.01,Wunderground v.1.15,2013-05-21 16:15:00,
2013-05-21 12:20:00,77.9,74.1,30.02,NNE,22,0.0,0.0,88,0.00,,,0.01,Wunderground v.1.15,2013-05-21 16:20:00,
2013-05-21 12:30:00,78.2,73.7,30.02,NNE,22,0.0,0.0,86,0.00,,,0.01,Wunderground v.1.15,2013-05-21 16:30:00,
2013-05-21 12:40:00,78.9,75.0,30.02,NNE,22,0.0,0.0,88,0.00,,,0.01,Wunderground v.1.15,2013-05-21 16:40:00,
2013-05-21 12:50:00,79.7,75.1,30.01,NNE,22,0.0,0.0,86,0.00,,,0.01,Wunderground v.1.15,2013-05-21 16:50:00,
2013-05-21 12:55:00,80.3,74.3,30.01,NNE,22,0.0,0.0,82,0.00,,,0.01,Wunderground v.1.15,2013-05-21 16:55:00,
2013-05-21 13:00:00,80.8,74.8,30.01,NNE,22,0.0,0.0,82,0.00,,,0.01,Wunderground v.1.15,2013-05-21 17:00:00,
2013-05-21 13:10:00,81.5,76.2,30.01,NNE,22,0.0,0.0,84,0.00,,,0.01,Wunderground v.1.15,2013-05-21 17:10:00,
2013-05-21 13:20:00,82.9,75.3,30.00,NNE,22,0.0,0.0,78,0.00,,,0.01,Wunderground v.1.15,2013-05-21 17:20:00,
2013-05-21 13:30:00,82.7,76.3,30.00,NNE,22,0.0,0.0,81,0.00,,,0.01,Wunderground v.1.15,2013-05-21 17:30:00,
2013-05-21 13:35:00,82.4,76.3,30.00,NNE,22,0.0,0.0,82,0.00,,,0.01,Wunderground v.1.15,2013-05-21 17:35:00,
2013-05-21 13:40:00,82.6,75.0,30.00,NNE,22,0.0,0.0,78,0.00,,,0.01,Wunderground v.1.15,2013-05-21 17:40:00,
2013-05-21 13:50:00,82.7,75.9,29.99,NNE,22,0.0,0.0,80,0.00,,,0.01,Wunderground v.1.15,2013-05-21 17:50:00,
2013-05-21 14:00:00,84.0,74.4,29.99,SSE,161,0.0,0.0,73,0.00,,,0.01,Wunderground v.1.15,2013-05-21 18:00:00,
2013-05-21 14:10:00,85.0,75.8,29.99,SSE,161,0.0,0.0,74,0.00,,,0.01,Wunderground v.1.15,2013-05-21 18:10:00,
2013-05-21 14:20:00,85.4,75.8,29.98,SSE,161,0.0,0.0,73,0.00,,,0.01,Wunderground v.1.15,2013-05-21 18:20:00,
2013-05-21 14:25:00,85.3,75.2,29.98,SSE,161,0.0,0.0,72,0.00,,,0.01,Wunderground v.1.15,2013-05-21 18:25:00,
2013-05-21 14:30:00,85.0,74.5,29.98,SSE,161,0.0,0.0,71,0.00,,,0.01,Wunderground v.1.15,2013-05-21 18:30:00,
2013-05-21 14:40:00,86.2,76.5,29.98,SSE,161,0.0,0.0,73,0.00,,,0.01,Wunderground v.1.15,2013-05-21 18:40:00,
2013-05-21 14:50:00,87.4,75.1,29.97,SSE,164,0.0,0.0,67,0.00,,,0.01,Wunderground v.1.15,2013-05-21 18:50:00,
2013-05-21 15:00:00,87.6,75.3,29.97,SSE,164,0.0,0.0,67,0.00,,,0.01,Wunderground v.1.15,2013-05-21 19:00:00,
2013-05-21 15:05:00,87.6,77.0,29.96,SSE,164,0.0,0.0,71,0.00,,,0.01,Wunderground v.1.15,2013-05-21 19:05:00,
2013-05-21 15:10:00,87.9,74.2,29.96,SSE,164,0.0,0.0,64,0.00,,,0.01,Wunderground v.1.15,2013-05-21 19:10:00,
2013-05-21 15:20:00,88.9,77.4,29.95,SSE,164,0.0,0.0,69,0.00,,,0.01,Wunderground v.1.15,2013-05-21 19:20:00,
2013-05-21 15:30:00,89.1,76.7,29.95,SSE,164,0.0,0.0,67,0.00,,,0.01,Wunderground v.1.15,2013-05-21 19:30:00,
2013-05-21 15:40:00,88.2,72.6,29.94,SSE,164,0.0,0.0,60,0.00,,,0.01,Wunderground v.1.15,2013-05-21 19:40:00,
2013-05-21 15:50:00,88.5,75.2,29.94,SSE,164,0.0,0.0,65,0.00,,,0.01,Wunderground v.1.15,2013-05-21 19:50:00,
2013-05-21 16:00:00,88.7,75.4,29.94,SSE,164,0.0,0.0,65,0.00,,,0.01,Wunderground v.1.15,2013-05-21 20:00:00,
2013-05-21 16:05:00,88.2,74.9,29.93,SSE,164,0.0,0.0,65,0.00,,,0.01,Wunderground v.1.15,2013-05-21 20:05:00,
2013-05-21 16:15:00,88.3,75.9,29.93,SSE,164,0.0,0.0,67,0.00,,,0.01,Wunderground v.1.15,2013-05-21 20:15:00,
2013-05-21 16:20:00,88.3,74.1,29.92,SSE,164,0.0,0.0,63,0.00,,,0.01,Wunderground v.1.15,2013-05-21 20:20:00,
2013-05-21 16:30:00,88.8,74.6,29.92,SSE,167,0.0,0.0,63,0.00,,,0.01,Wunderground v.1.15,2013-05-21 20:30:00,
2013-05-21 16:35:00,89.0,74.3,29.92,SSE,167,0.0,0.0,62,0.00,,,0.01,Wunderground v.1.15,2013-05-21 20:35:00,
2013-05-21 16:40:00,89.2,75.0,29.92,SSE,167,0.0,0.0,63,0.00,,,0.01,Wunderground v.1.15,2013-05-21 20:40:00,
2013-05-21 16:50:00,88.5,72.8,29.92,SSE,168,0.0,0.0,60,0.00,,,0.01,Wunderground v.1.15,2013-05-21 20:50:00,
2013-05-21 17:00:00,86.8,73.6,29.92,SSE,168,0.0,0.0,65,0.00,,,0.01,Wunderground v.1.15,2013-05-21 21:00:00,
2013-05-21 17:05:00,85.9,72.8,29.92,SSE,168,0.0,0.0,65,0.00,,,0.01,Wunderground v.1.15,2013-05-21 21:05:00,
2013-05-21 17:10:00,85.4,73.2,29.92,SSE,168,0.0,0.0,67,0.00,,,0.01,Wunderground v.1.15,2013-05-21 21:10:00,
2013-05-21 17:20:00,84.9,74.4,29.91,SSE,168,0.0,0.0,71,0.00,,,0.01,Wunderground v.1.15,2013-05-21 21:20:00,
2013-05-21 17:30:00,84.8,74.3,29.91,SSE,168,0.0,0.0,71,0.00,,,0.01,Wunderground v.1.15,2013-05-21 21:30:00,
2013-05-21 17:40:00,84.4,74.4,29.91,SSE,168,0.0,0.0,72,0.00,,,0.01,Wunderground v.1.15,2013-05-21 21:40:00,
2013-05-21 17:45:00,84.1,72.4,29.91,SSE,168,0.0,0.0,68,0.00,,,0.01,Wunderground v.1.15,2013-05-21 21:45:00,
2013-05-21 17:50:00,83.9,73.9,29.91,SSE,168,0.0,0.0,72,0.00,,,0.01,Wunderground v.1.15,2013-05-21 21:50:00,
2013-05-21 18:00:00,83.4,72.2,29.90,SSE,168,0.0,0.0,69,0.00,,,0.01,Wunderground v.1.15,2013-05-21 22:00:00,
2013-05-21 18:10:00,82.9,72.1,29.90,SSE,168,0.0,0.0,70,0.00,,,0.01,Wunderground v.1.15,2013-05-21 22:10:00,
2013-05-21 18:20:00,82.2,73.9,29.90,SSE,168,0.0,0.0,76,0.00,,,0.01,Wunderground v.1.15,2013-05-21 22:20:00,
2013-05-21 18:25:00,81.5,75.8,29.90,SSE,168,0.0,0.0,83,0.00,,,0.01,Wunderground v.1.15,2013-05-21 22:25:00,
2013-05-21 18:30:00,80.9,73.8,29.90,SSE,168,0.0,0.0,79,0.00,,,0.01,Wunderground v.1.15,2013-05-21 22:30:00,
2013-05-21 18:40:00,80.7,72.4,29.90,South,169,0.0,0.0,76,0.00,,,0.01,Wunderground v.1.15,2013-05-21 22:40:00,
2013-05-21 18:50:00,81.0,73.9,29.90,South,169,0.0,0.0,79,0.00,,,0.01,Wunderground v.1.15,2013-05-21 22:50:00,
2013-05-21 18:55:00,81.2,73.7,29.90,South,169,0.0,0.0,78,0.00,,,0.01,Wunderground v.1.15,2013-05-21 22:55:00,
2013-05-21 19:00:00,81.3,75.3,29.90,South,169,0.0,0.0,82,0.00,,,0.01,Wunderground v.1.15,2013-05-21 23:00:00,
2013-05-21 19:10:00,81.1,74.3,29.90,South,169,0.0,0.0,80,0.00,,,0.01,Wunderground v.1.15,2013-05-21 23:10:00,
2013-05-21 19:20:00,81.0,74.2,29.90,South,169,0.0,0.0,80,0.00,,,0.01,Wunderground v.1.15,2013-05-21 23:20:00,
2013-05-21 19:30:00,80.7,74.0,29.90,South,169,0.0,0.0,80,0.00,,,0.01,Wunderground v.1.15,2013-05-21 23:30:00,
2013-05-21 19:40:00,80.6,74.6,29.90,South,169,0.0,0.0,82,0.00,,,0.01,Wunderground v.1.15,2013-05-21 23:40:00,
2013-05-21 19:50:00,80.5,74.5,29.89,South,169,0.0,0.0,82,0.00,,,0.01,Wunderground v.1.15,2013-05-21 23:50:00,
2013-05-21 20:00:00,80.2,74.2,29.89,South,169,0.0,0.0,82,0.00,,,0.01,Wunderground v.1.15,2013-05-22 00:00:00,
2013-05-21 20:10:00,79.8,73.8,29.89,ENE,67,0.0,0.0,82,0.00,,,0.01,Wunderground v.1.15,2013-05-22 00:10:00,
2013-05-21 20:20:00,79.3,74.7,29.90,ENE,67,0.0,0.0,86,0.00,,,0.01,Wunderground v.1.15,2013-05-22 00:20:00,
2013-05-21 20:30:00,78.5,75.0,29.90,ENE,76,0.0,0.0,89,0.00,,,0.01,Wunderground v.1.15,2013-05-22 00:30:00,
2013-05-21 20:40:00,77.6,74.1,29.90,SSE,158,0.0,0.0,89,0.00,,,0.01,Wunderground v.1.15,2013-05-22 00:40:00,
2013-05-21 20:50:00,76.7,73.5,29.92,SSE,157,0.0,0.0,90,0.00,,,0.01,Wunderground v.1.15,2013-05-22 00:50:00,
2013-05-21 21:00:00,76.0,73.5,29.92,SSE,157,0.0,0.0,92,0.00,,,0.01,Wunderground v.1.15,2013-05-22 01:00:00,
2013-05-21 21:10:00,75.3,72.8,29.92,SSE,157,0.0,0.0,92,0.00,,,0.01,Wunderground v.1.15,2013-05-22 01:10:00,
2013-05-21 21:20:00,74.6,73.1,29.91,SSE,157,0.0,0.0,95,0.00,,,0.01,Wunderground v.1.15,2013-05-22 01:20:00,
2013-05-21 21:25:00,74.4,72.9,29.91,SSE,158,0.0,0.0,95,0.00,,,0.01,Wunderground v.1.15,2013-05-22 01:25:00,
2013-05-21 21:30:00,74.1,72.9,29.92,SSE,159,0.0,0.0,96,0.00,,,0.01,Wunderground v.1.15,2013-05-22 01:30:00,
2013-05-21 21:40:00,73.4,72.8,29.92,SSE,159,0.0,0.0,98,0.00,,,0.01,Wunderground v.1.15,2013-05-22 01:40:00,
2013-05-21 21:50:00,73.1,72.5,29.93,SSE,159,0.0,0.0,98,0.00,,,0.01,Wunderground v.1.15,2013-05-22 01:50:00,
2013-05-21 22:00:00,72.8,72.2,29.93,SSE,159,0.0,0.0,98,0.00,,,0.01,Wunderground v.1.15,2013-05-22 02:00:00,
2013-05-21 22:05:00,72.6,72.0,29.94,SSE,159,0.0,0.0,98,0.00,,,0.01,Wunderground v.1.15,2013-05-22 02:05:00,
2013-05-21 22:10:00,72.4,71.8,29.94,SSE,159,0.0,0.0,98,0.00,,,0.01,Wunderground v.1.15,2013-05-22 02:10:00,
2013-05-21 22:20:00,72.2,71.9,29.95,SSE,159,0.0,0.0,99,0.00,,,0.01,Wunderground v.1.15,2013-05-22 02:20:00,
2013-05-21 22:30:00,72.1,71.8,29.95,SSE,159,0.0,0.0,99,0.00,,,0.01,Wunderground v.1.15,2013-05-22 02:30:00,
2013-05-21 22:40:00,72.4,71.5,29.96,NE,49,0.0,0.0,97,0.00,,,0.01,Wunderground v.1.15,2013-05-22 02:40:00,
2013-05-21 22:45:00,72.7,71.5,29.97,NE,49,0.0,0.0,96,0.00,,,0.01,Wunderground v.1.15,2013-05-22 02:45:00,
2013-05-21 22:50:00,72.6,71.4,29.97,NW,314,0.0,0.0,96,0.00,,,0.01,Wunderground v.1.15,2013-05-22 02:50:00,
2013-05-21 23:00:00,71.8,71.2,29.97,NW,313,0.0,0.0,98,0.00,,,0.02,Wunderground v.1.15,2013-05-22 03:00:00,
2013-05-21 23:10:00,70.7,70.4,29.98,NW,315,0.0,0.0,99,0.00,,,0.02,Wunderground v.1.15,2013-05-22 03:10:00,
2013-05-21 23:19:00,69.9,69.9,29.97,NW,314,0.0,0.0,100,0.00,,,0.02,Wunderground v.1.15,2013-05-22 03:19:00,
2013-05-21 23:25:00,69.4,69.4,29.97,NNE,15,0.0,2.0,100,0.00,,,0.02,Wunderground v.1.15,2013-05-22 03:25:00,
2013-05-21 23:30:00,69.2,68.9,30.00,East,88,0.0,0.0,99,0.00,,,0.02,Wunderground v.1.15,2013-05-22 03:30:00,
2013-05-21 23:40:00,69.0,68.7,30.00,ENE,58,0.0,0.0,99,0.00,,,0.02,Wunderground v.1.15,2013-05-22 03:40:00,
2013-05-21 23:50:00,68.8,68.8,30.00,ENE,61,0.0,0.0,100,0.00,,,0.02,Wunderground v.1.15,2013-05-22 03:50:00,
2013-05-21 23:55:00,68.6,68.6,30.00,ENE,62,0.0,0.0,100,0.00,,,0.02,Wunderground v.1.15,2013-05-22 03:55:00,